Flag for Norway Weather past 2 weeks in Hamar, Norway

Now
32 °F

Chilly.


Feels Like: 32 °F
Forecast: 22 / 42 °F
Wind: 1 mph from Southeast

Location: Haugedalshogda

Current Time: Mar 31, 2015 at 12:17:29 PM

Latest Report: Mar 31, 2015 at 11:00 AM


Visibility: N/A

Pressure: 29.00 "Hg

Humidity: 67%

Dew point: 22 °F

Location of HamarLocation

Historic Weather in Hamar — Graph

°F

Hamar temperature yesterday

Maximum temperature yesterday: 43 °F (at 5:00 PM)
Minimum temperature yesterday: 30 °F (at 7:00 AM)
Average temperature yesterday: 35 °F

Past Weeks' High & Low Weather Summary

 TemperatureHumidityPressure
High52 °F (Mar 23, 3:00 PM)96% (Mar 18, 5:00 AM)30.92 "Hg (Mar 18, 5:00 AM)
Low18 °F (Mar 21, 10:00 PM)34% (Mar 24, 2:00 PM)29.00 "Hg (Mar 31, 11:00 AM)
Average32 °F79%29.96 "Hg
* Reported Mar 16 10:00 AM — Mar 31 11:00 AM, Hamar, Weather by CustomWeather, © 2015

Note: Actual official high and low records may vary slightly from our data, if they occured in-between our weather recording intervals... More about our weather records

Advertising

Hamar weather history for previous 24 hours

 ConditionsComfort  
Time TempWeatherWind HumidityBarometerVisibility
11:00 AM
Tue, Mar 31
32 °FChilly.1 mph67%29.00 "HgN/A
10:00 AM27 °FChilly.1 mph76%29.03 "HgN/A
9:00 AM22 °FCold.2 mph87%29.03 "HgN/A
8:00 AM19 °FCold.1 mph91%29.03 "HgN/A
7:00 AM19 °FCold.1 mph92%29.06 "HgN/A
6:00 AM22 °FCold.3 mph94%29.06 "HgN/A
4:00 AM22 °FCold.1 mph94%29.09 "HgN/A
3:00 AM22 °FCold.1 mph95%29.09 "HgN/A
2:00 AM24 °FCold.1 mph94%29.09 "HgN/A
1:00 AM25 °FChilly.No wind93%29.12 "HgN/A
12:00 AM27 °FChilly.1 mph92%29.12 "HgN/A
11:00 PM
Mon, Mar 30
31 °FChilly.1 mph88%29.12 "HgN/A
10:00 PM35 °FChilly.2 mph78%29.12 "HgN/A
9:00 PM36 °FChilly.2 mph75%29.15 "HgN/A
8:00 PM35 °FChilly.No wind81%29.15 "HgN/A
7:00 PM39 °FChilly.1 mph67%29.12 "HgN/A
6:00 PM42 °FQuite cool.2 mph52%29.12 "HgN/A
5:00 PM43 °FQuite cool.5 mph50%29.12 "HgN/A
4:00 PM42 °FQuite cool.3 mph53%29.12 "HgN/A
3:00 PM42 °FQuite cool.3 mph54%29.12 "HgN/A
2:00 PM41 °FQuite cool.5 mph61%29.09 "HgN/A
1:00 PM39 °FChilly.6 mph66%29.09 "HgN/A
12:00 PM37 °FChilly.7 mph71%29.09 "HgN/A
Weather by CustomWeather, © 2015

See weather overviewHow to use our weather pages